Hourly Weather Bolshoe Belyakovo

Today, 5 August, Thursday

Time Temperature Precipitation Wind Pressure Humidity
00:00 +15°C° 0.8 mm 1 mps 734 mmHg 97%
01:00 +15°C° 0.8 mm 1 mps 733 mmHg 97%
02:00 +15°C° 0.8 mm 1 mps 733 mmHg 97%
03:00 +15°C° 0.1 mm 1 mps 733 mmHg 97%
04:00 +15°C° 0.1 mm 1 mps 733 mmHg 97%
05:00 +15°C° 0.1 mm 1 mps 733 mmHg 97%
06:00 +15°C° 0 mm 1 mps 733 mmHg 94%
07:00 +15°C° 0 mm 1 mps 733 mmHg 92%
08:00 +16°C° 0 mm 1 mps 732 mmHg 90%
09:00 +18°C° 0.1 mm 1 mps 733 mmHg 84%
10:00 +18°C° 0.1 mm 2 mps 733 mmHg 79%
11:00 +19°C° 0.1 mm 2 mps 733 mmHg 74%
12:00 +19°C° 0 mm 2 mps 733 mmHg 72%
13:00 +19°C° 0 mm 2 mps 733 mmHg 71%
14:00 +19°C° 0 mm 3 mps 733 mmHg 70%
15:00 +19°C° 0 mm 3 mps 733 mmHg 71%
16:00 +19°C° 0 mm 3 mps 732 mmHg 71%
17:00 +19°C° 0 mm 3 mps 732 mmHg 71%
18:00 +18°C° 0 mm 3 mps 732 mmHg 74%
19:00 +17°C° 0 mm 4 mps 732 mmHg 78%
20:00 +15°C° 0 mm 4 mps 731 mmHg 81%
21:00 +15°C° 0 mm 4 mps 731 mmHg 83%
22:00 +14°C° 0 mm 5 mps 731 mmHg 86%
23:00 +14°C° 0 mm 5 mps 731 mmHg 89%

Tomorrow, 6 August, Friday

Time Temperature Precipitation Wind Pressure Humidity
00:00 +14°C° 0.2 mm 5 mps 730 mmHg 90%
01:00 +13°C° 0.2 mm 6 mps 729 mmHg 92%
02:00 +13°C° 0.2 mm 6 mps 729 mmHg 93%
03:00 +12°C° 1.2 mm 7 mps 728 mmHg 94%
04:00 +12°C° 1.2 mm 7 mps 727 mmHg 96%
05:00 +12°C° 1.2 mm 8 mps 726 mmHg 97%
06:00 +12°C° 0.6 mm 7 mps 726 mmHg 97%
07:00 +14°C° 0.6 mm 7 mps 725 mmHg 97%
08:00 +14°C° 0.6 mm 7 mps 725 mmHg 97%
09:00 +16°C° 0.3 mm 6 mps 725 mmHg 94%
10:00 +17°C° 0.3 mm 6 mps 725 mmHg 91%
11:00 +20°C° 0.3 mm 6 mps 725 mmHg 88%
12:00 +20°C° 0.5 mm 5 mps 724 mmHg 87%
13:00 +21°C° 0.5 mm 5 mps 724 mmHg 85%
14:00 +21°C° 0.5 mm 5 mps 724 mmHg 84%
15:00 +21°C° 0.5 mm 5 mps 724 mmHg 84%
16:00 +20°C° 0.5 mm 5 mps 724 mmHg 84%
17:00 +20°C° 0.5 mm 6 mps 724 mmHg 85%
18:00 +19°C° 0.1 mm 5 mps 725 mmHg 88%
19:00 +16°C° 0.1 mm 5 mps 725 mmHg 91%
20:00 +15°C° 0.1 mm 4 mps 725 mmHg 94%
21:00 +14°C° 0 mm 4 mps 725 mmHg 94%
22:00 +13°C° 0 mm 4 mps 726 mmHg 93%
23:00 +12°C° 0 mm 4 mps 726 mmHg 93%

Day after tomorrow, 7 August, Saturday

Time Temperature Precipitation Wind Pressure Humidity
00:00 +12°C° 0 mm 4 mps 727 mmHg 92%
01:00 +12°C° 0 mm 4 mps 727 mmHg 91%
02:00 +12°C° 0 mm 4 mps 727 mmHg 90%
03:00 +12°C° 0 mm 4 mps 727 mmHg 91%
04:00 +12°C° 0 mm 4 mps 727 mmHg 91%
05:00 +12°C° 0 mm 3 mps 728 mmHg 91%
06:00 +12°C° 0 mm 4 mps 728 mmHg 90%
07:00 +13°C° 0 mm 4 mps 728 mmHg 88%
08:00 +13°C° 0 mm 5 mps 729 mmHg 87%
09:00 +14°C° 0 mm 5 mps 729 mmHg 81%
10:00 +15°C° 0 mm 6 mps 729 mmHg 74%
11:00 +17°C° 0 mm 6 mps 730 mmHg 68%
12:00 +17°C° 0.1 mm 6 mps 730 mmHg 66%
13:00 +19°C° 0.1 mm 6 mps 730 mmHg 64%
14:00 +20°C° 0.1 mm 6 mps 730 mmHg 61%
15:00 +19°C° 0.2 mm 5 mps 731 mmHg 66%
16:00 +19°C° 0.2 mm 4 mps 731 mmHg 70%
17:00 +18°C° 0.2 mm 4 mps 731 mmHg 75%
18:00 +17°C° 0 mm 3 mps 731 mmHg 78%
19:00 +16°C° 0 mm 3 mps 731 mmHg 82%
20:00 +15°C° 0 mm 2 mps 732 mmHg 86%
21:00 +15°C° 0 mm 2 mps 732 mmHg 86%
22:00 +13°C° 0 mm 3 mps 732 mmHg 86%
23:00 +13°C° 0 mm 3 mps 732 mmHg 86%

8 August, Sunday

Time Temperature Precipitation Wind Pressure Humidity
00:00 +12°C° 0 mm 3 mps 732 mmHg 85%
01:00 +12°C° 0 mm 3 mps 732 mmHg 85%
02:00 +13°C° 0 mm 2 mps 732 mmHg 85%
03:00 +13°C° 0 mm 2 mps 733 mmHg 86%
04:00 +13°C° 0 mm 2 mps 733 mmHg 88%
05:00 +13°C° 0 mm 2 mps 733 mmHg 89%
06:00 +15°C° 0 mm 2 mps 733 mmHg 85%
07:00 +17°C° 0 mm 3 mps 733 mmHg 81%
08:00 +19°C° 0 mm 3 mps 733 mmHg 77%
09:00 +21°C° 0 mm 3 mps 734 mmHg 70%
10:00 +22°C° 0 mm 3 mps 734 mmHg 63%
11:00 +25°C° 0 mm 4 mps 734 mmHg 56%
12:00 +25°C° 0 mm 4 mps 734 mmHg 54%
13:00 +26°C° 0 mm 4 mps 734 mmHg 53%
14:00 +26°C° 0 mm 5 mps 734 mmHg 51%
15:00 +26°C° 0 mm 4 mps 734 mmHg 54%
16:00 +26°C° 0 mm 4 mps 734 mmHg 56%
17:00 +27°C° 0 mm 4 mps 734 mmHg 58%
18:00 +25°C° 0 mm 3 mps 734 mmHg 63%
19:00 +24°C° 0 mm 3 mps 734 mmHg 68%
20:00 +21°C° 0 mm 3 mps 734 mmHg 73%
21:00 +20°C° 0.2 mm 3 mps 734 mmHg 77%
22:00 +19°C° 0.2 mm 3 mps 734 mmHg 81%
23:00 +19°C° 0.2 mm 3 mps 734 mmHg 86%

9 August, Monday

Time Temperature Precipitation Wind Pressure Humidity
00:00 +18°C° 0.2 mm 2 mps 734 mmHg 88%
01:00 +18°C° 0.2 mm 2 mps 734 mmHg 91%
02:00 +19°C° 0.2 mm 1 mps 734 mmHg 93%
03:00 +18°C° 0.3 mm 1 mps 734 mmHg 94%
04:00 +18°C° 0.3 mm 1 mps 734 mmHg 95%
05:00 +18°C° 0.3 mm 1 mps 734 mmHg 96%
06:00 +19°C° 0 mm 1 mps 735 mmHg 93%
07:00 +19°C° 0 mm 2 mps 735 mmHg 89%
08:00 +20°C° 0 mm 2 mps 735 mmHg 86%
09:00 +20°C° 0.4 mm 2 mps 735 mmHg 84%
10:00 +20°C° 0.4 mm 2 mps 735 mmHg 81%
11:00 +21°C° 0.4 mm 2 mps 736 mmHg 78%
12:00 +20°C° 0.9 mm 2 mps 736 mmHg 80%
13:00 +19°C° 0.9 mm 3 mps 736 mmHg 82%
14:00 +19°C° 0.9 mm 3 mps 736 mmHg 84%
15:00 +19°C° 0 mm 3 mps 736 mmHg 81%
16:00 +19°C° 0 mm 3 mps 736 mmHg 79%
17:00 +19°C° 0 mm 4 mps 737 mmHg 77%
18:00 +17°C° 0 mm 3 mps 737 mmHg 82%
19:00 +16°C° 0 mm 3 mps 737 mmHg 87%
20:00 +15°C° 0 mm 2 mps 737 mmHg 92%
21:00 +15°C° 0 mm 2 mps 737 mmHg 92%
22:00 +14°C° 0 mm 1 mps 737 mmHg 93%
23:00 +14°C° 0 mm 1 mps 737 mmHg 93%

10 August, Tuesday

Time Temperature Precipitation Wind Pressure Humidity
00:00 +14°C° 0 mm 1 mps 737 mmHg 93%
01:00 +14°C° 0 mm 2 mps 737 mmHg 94%
02:00 +14°C° 0 mm 2 mps 737 mmHg 94%
03:00 +13°C° 0 mm 2 mps 737 mmHg 93%
04:00 +13°C° 0 mm 1 mps 737 mmHg 93%
05:00 +13°C° 0 mm 1 mps 737 mmHg 92%
06:00 +15°C° 0 mm 1 mps 737 mmHg 86%
07:00 +16°C° 0 mm 2 mps 737 mmHg 81%
08:00 +18°C° 0 mm 2 mps 737 mmHg 75%
09:00 +19°C° 0.4 mm 2 mps 737 mmHg 70%
10:00 +20°C° 0.4 mm 3 mps 737 mmHg 65%
11:00 +21°C° 0.4 mm 4 mps 737 mmHg 60%
12:00 +22°C° 0.3 mm 4 mps 737 mmHg 57%
13:00 +22°C° 0.3 mm 3 mps 737 mmHg 54%
14:00 +24°C° 0.3 mm 3 mps 737 mmHg 51%
15:00 +22°C° 0.1 mm 3 mps 736 mmHg 54%
16:00 +21°C° 0.1 mm 3 mps 736 mmHg 58%
17:00 +20°C° 0.1 mm 3 mps 736 mmHg 61%
18:00 +19°C° 0.2 mm 3 mps 736 mmHg 67%
19:00 +18°C° 0.2 mm 2 mps 735 mmHg 74%
20:00 +16°C° 0.2 mm 2 mps 735 mmHg 80%
21:00 +15°C° 0 mm 2 mps 735 mmHg 81%
22:00 +15°C° 0 mm 2 mps 735 mmHg 83%
23:00 +14°C° 0 mm 1 mps 735 mmHg 85%
Show more

We Need Your Consent

Meteoprog and our Service Providers may store and access personal data such as cookies, device identifiers or other similar technologies on your device and process such data to personalise content and ads, as well as provide social media features and to analyse the traffic.

  • Store and/or access information on your device

    Cookies, device identifiers or other information can be stored or accessed on your device for the purposes indicated above.

  • Personalised ads and content, ad and content measurement, audience insights, and products development

    Ads and content can be personalised based on a profile. More data can be added to better personalise ads and content. Ad and content performance can be measured. Insights about the audience who saw the ads and content can be derived. Such data can be used to develop or improve user’s experience, systems and software.

By clicking ‘I Agree’ you will allow the use of indicated cookies, device identifiers, web beacons or other similar technologies. Your settings can be changed in the browser on your device.

For certain purposes, legitimate interests may be relied on, rather than consent. You can read more about this in our Privacy and Cookie Policy.